EW5897 Weather Reports


Display with metric or nautical units.
time (UTC)temp
F
wind
direction
speed
MPH
gust
MPH
rain 1hr
in
rain 24hr
in
rain mn
in
humidity
%
barometer
mb
20260903032422 63 76 7.0 12.0 0.00 0.01 0.01 86 1007.0
20260903030429 63 72 6.0 10.0 0.00 0.01 0.01 87 1007.0
20260903024924 63 51 5.0 9.0 0.00 0.01 0.01 87 1007.0
20260903022935 63 61 3.0 6.0 0.00 0.01 0.01 84 1006.8
20260903021427 64 61 4.0 7.0 0.00 0.01 0.01 83 1006.6
20260903015916 65 73 5.0 9.0 0.00 0.01 0.01 81 1006.4
20260903013932 67 66 6.0 9.0 0.00 0.01 0.01 79 1006.2
20260903012430 68 90 5.0 9.0 0.00 0.01 0.01 76 1006.2
20260903010926 71 82 5.0 9.0 0.00 0.01 0.01 72 1006.1
20260903005416 73 56 5.0 10.0 0.00 0.01 0.01 68 1006.0
20260903003415 75 72 12.0 17.0 0.00 0.01 0.01 62 1006.0
20260903001432 76 97 11.0 17.0 0.00 0.01 0.01 57 1006.0
20260902235429 77 92 12.0 17.0 0.00 0.01 0.01 55 1005.9
20260902233432 77 88 10.0 15.0 0.00 0.01 0.01 55 1006.2
20260902231929 78 109 9.0 14.0 0.00 0.01 0.01 53 1006.1
20260902230413 79 102 11.0 18.0 0.00 0.01 0.01 51 1006.1
20260902224912 79 106 11.0 17.0 0.00 0.01 0.01 52 1006.3
20260902222923 78 86 11.0 17.0 0.00 0.01 0.01 54 1006.2
20260902220914 78 88 8.0 15.0 0.00 0.01 0.01 54 1006.3
20260902214932 79 115 6.0 14.0 0.00 0.01 0.01 53 1006.5
20260902213426 80 99 9.0 18.0 0.00 0.01 0.01 52 1006.7
20260902211437 79 89 9.0 14.0 0.00 0.01 0.01 53 1006.9
20260902205930 79 97 10.0 16.0 0.00 0.01 0.01 53 1007.2
20260902203917 78 71 8.0 15.0 0.00 0.01 0.01 55 1007.5
20260902202412 79 130 5.0 13.0 0.00 0.01 0.01 54 1007.6
20260902200417 78 82 9.0 16.0 0.00 0.01 0.01 56 1007.9
20260902194914 78 86 11.0 17.0 0.00 0.01 0.01 57 1008.0
20260902192932 76 88 9.0 16.0 0.00 0.01 0.01 59 1008.2
20260902190934 76 98 8.0 15.0 0.00 0.01 0.01 59 1008.5
20260902185425 76 128 5.0 13.0 0.00 0.01 0.01 58 1008.7
20260902183433 75 83 7.0 15.0 0.00 0.01 0.01 59 1009.0
20260902181426 75 89 10.0 14.0 0.00 0.01 0.01 59 1009.1
20260902175914 74 57 10.0 15.0 0.00 0.01 0.01 60 1009.3
20260902173926 74 89 8.0 16.0 0.00 0.01 0.01 61 1009.5
20260902171923 72 94 7.0 14.0 0.00 0.01 0.01 64 1009.6
20260902170417 71 88 7.0 11.0 0.00 0.01 0.01 65 1009.8
20260902164428 71 96 7.0 12.0 0.00 0.01 0.01 68 1010.0
20260902162425 69 75 4.0 10.0 0.00 0.01 0.01 73 1010.1
20260902160916 67 49 6.0 10.0 0.00 0.01 0.01 78 1010.2
20260902154925 64 64 4.0 9.0 0.00 0.01 0.01 88 1010.2
20260902153417 63 65 4.0 7.0 0.00 0.01 0.01 94 1010.4
20260902151428 59 62 3.0 5.0 0.00 0.01 0.01 98 1010.7
20260902145920 58 45 2.0 5.0 0.01 0.01 0.01 98 1010.7
20260902143920 56 86 1.0 3.0 0.01 0.01 0.01 97 1010.7
20260902141925 55 60 1.0 4.0 0.01 0.01 0.01 97 1010.8
20260902135917 53 45 2.0 4.0 0.00 0.00 0.00 98 1010.8
20260902133932 50 57 1.0 3.0 0.00 0.00 0.00 97 1010.8
20260902131919 49 36 0.0 1.0 0.00 0.00 0.00 97 1010.9
20260902125935 47 27 0.0 2.0 0.00 0.00 0.00 97 1010.7
20260902123929 45 21 0.0 0.0 0.00 0.00 0.00 96 1010.7
20260902122424 45 17 0.0 0.0 0.00 0.00 0.00 97 1010.5
20260902120913 45 17 0.0 0.0 0.00 0.00 0.00 96 1010.4
20260902114931 45 17 0.0 0.0 0.00 0.00 0.00 96 1010.4
20260902112925 45 17 0.0 0.0 0.00 0.00 0.00 96 1010.6
20260902111422 46 17 0.0 0.0 0.00 0.00 0.00 96 1010.7
20260902105430 46 17 0.0 0.0 0.00 0.00 0.00 96 1010.7
20260902103429 47 17 0.0 0.0 0.00 0.00 0.00 96 1010.6
20260902101434 48 17 0.0 3.0 0.00 0.00 0.00 96 1010.7
20260902095930 48 22 0.0 1.0 0.00 0.00 0.00 96 1010.8
20260902093913 47 25 0.0 0.0 0.00 0.00 0.00 96 1010.8
20260902091922 47 25 0.0 0.0 0.00 0.00 0.00 96 1010.7
20260902085926 47 25 0.0 2.0 0.00 0.00 0.00 95 1010.7
20260902083929 47 24 0.0 0.0 0.00 0.00 0.00 96 1010.7
20260902081927 48 24 0.0 0.0 0.00 0.00 0.00 95 1010.8
20260902080415 48 24 0.0 1.0 0.00 0.00 0.00 95 1010.8
20260902074430 48 24 0.0 0.0 0.00 0.00 0.00 95 1011.0
20260902072425 48 24 0.0 0.0 0.00 0.00 0.00 95 1011.0
20260902070925 48 24 0.0 0.0 0.00 0.00 0.00 95 1011.0
20260902065415 48 24 0.0 0.0 0.00 0.00 0.00 94 1010.9
20260902063426 48 24 0.0 0.0 0.00 0.00 0.00 95 1011.0
20260902061923 48 24 0.0 0.0 0.00 0.00 0.00 94 1011.1
20260902055934 49 24 0.0 1.0 0.00 0.00 0.00 94 1011.1
20260902054428 50 24 0.0 0.0 0.00 0.00 0.00 94 1010.9
20260902052925 51 17 0.0 0.0 0.00 0.00 0.00 94 1010.9
20260902050932 51 17 0.0 2.0 0.00 0.00 0.00 93 1010.9
20260902044938 52 17 0.0 4.0 0.00 0.00 0.00 93 1010.8
20260902043417 52 17 0.0 0.0 0.00 0.00 0.00 92 1010.6
20260902041424 52 17 0.0 0.0 0.00 0.00 0.00 91 1010.6
20260902035918 53 17 0.0 0.0 0.00 0.00 0.00 91 1010.5
20260902033930 54 17 0.0 1.0 0.00 0.00 0.00 91 1010.5